Regional Weather Roundup
Issued by NWS

Home | Current Version | Previous Version | Graphics & Text | Print | Product List | Glossary On
Versions: 1 2 3 4 5 6 7 8 9 10 11 12 13 14 15 16 17 18 19 20 21 22 23 24 25 26 27 28 29 30 31 32 33 34 35 36 37 38 39 40 41 42 43 44 45 46 47 48 49 50
000
ASUS45 KCYS 181710
RWRWY

WYOMING REGIONAL WEATHER ROUNDUP
NATIONAL WEATHER SERVICE CHEYENNE WY
1000 AM MST THU DEC 18 2014

NOTE:  "FAIR" INDICATES FEW OR NO CLOUDS BELOW 12,000 FEET
WITH NO SIGNIFICANT WEATHER AND/OR OBSTRUCTIONS TO VISIBILITY.

WYZ001-181800-
YELLOWSTONE NATIONAL PARK

CITY           SKY/WX    TMP DP  RH WIND       PRES   REMARKS
LK YELLOWSTONE   N/A     22  15  75 VRB6      30.07S WCI  14
W YELLOWSTONE  NOT AVBL

$$
WYZ002>013-054>058-071-098>099-181800-
NORTHERN WYOMING

CITY           SKY/WX    TMP DP  RH WIND       PRES   REMARKS
JACKSON        CLOUDY    19  18  93 CALM      30.10R
CODY           FAIR      30  16  55 CALM      30.02R
GREYBULL       FAIR      12  10  92 CALM      30.11R
WORLAND        FAIR       6   4  91 SW5       30.09R WCI  -3
SHERIDAN       FAIR      22  13  68 W5        30.00R WCI  16
BUFFALO        FAIR      36  19  50 SE3       30.01R
GILLETTE       FAIR      33  22  63 SW15      30.00R WCI  23
HULETT           N/A    N/A N/A N/A MISG        N/A
NEWCASTLE      FAIR      25  25 100 CALM      30.04R

$$
WYZ014>020-022>026-101>103-181800-
CENTRAL WYOMING

CITY           SKY/WX    TMP DP  RH WIND       PRES   REMARKS
BIG PINEY      FAIR      18  13  80 E3        30.11R
PINEDALE       FAIR      18  12  79 NW5       30.10R WCI  11
DUBOIS         FAIR      28  14  54 NW12G24   30.03S WCI  18
LANDER         FOG        0  -1  96 CALM      30.07R VSB 1/4
RIVERTON       HAZE      11   6  81 CALM      30.08R VSB<1/4
CASPER         FAIR      25  17  72 SW12      30.06R WCI  14
DOUGLAS        FAIR      26  19  74 NW5       30.05R WCI  20

$$
WYZ021-027>030-104>119-181800-
SOUTHERN WYOMING

CITY           SKY/WX    TMP DP  RH WIND       PRES   REMARKS
EVANSTON       CLOUDY    25  22  88 SW6       30.11R WCI  18
KEMMERER       CLOUDY    23  21  93 CALM      30.10R
FORT BRIDGER   PTSUNNY   31  24  74 W8        30.14R WCI  24
ROCK SPRINGS   NOT AVBL
DIXON          CLOUDY   N/A N/A N/A SE6       30.16S
RAWLINS        FAIR      24  20  84 W10       30.09R WCI  14
SARATOGA       FAIR      21  14  73 CALM      30.11R
LARAMIE        FAIR      26  18  71 SW6       30.02R WCI  19
CHEYENNE       FAIR      36  16  44 W18       30.03R WCI  26
TORRINGTON     FAIR      14  13  95 CALM      30.06R FOG
PINE BLUFFS    FAIR      36  23  60 W14       30.04S WCI  27

$$


USA.gov is the U.S. government's official web portal to all federal, state and local government web resources and services.